Wooster, OH

4:43 PM EDT on August 19, 2017 (GMT -0400)
Wayne County

Weather History for KBJJ - September, 2013

Change the Weather History Date:

Friday, September 27, 2013

  Actual Average Record
Temperature  
Mean Temperature 58 °F -  
Max Temperature 73 °F 67 °F 84 °F (1998)
Min Temperature 44 °F 43 °F 37 °F (1997)
Degree Days  
Heating Degree Days 7    
Growing Degree Days 8 (Base 50)    
Moisture  
Dew Point 47 °F    
Average Humidity 74    
Maximum Humidity 97    
Minimum Humidity 41    
Precipitation  
Precipitation 0.00 in - - ()
Sea Level Pressure  
Sea Level Pressure 30.19 in    
Wind  
Wind Speed 3 mph (ENE)    
Max Wind Speed 9 mph    
Max Gust Speed 18 mph    
Visibility 9 miles    
Events      
Averages and records for this station are not official NWS values.
T = Trace of Precipitation, MM = Missing Value Source: NWS Daily Summary

Daily Weather History Graph

Daily Weather History Graph

Search for Another Location

Airport or City:

Trip Planner

Search our weather history database for the weather conditions in past years. The results will help you decide how hot, cold, wet, or windy it might be!

Date:

Astronomy

Sep. 27, 2013 Rise Set
Actual Time 7:20 AM EDT 7:15 PM EDT
Civil Twilight 6:52 AM EDT 7:43 PM EDT
Nautical Twilight 6:21 AM EDT 8:15 PM EDT
Astronomical Twilight 5:48 AM EDT 8:47 PM EDT
Moon 12:12 AM EDT (9/27) 2:55 PM EDT (9/27)
Length of Visible Light 12h 50m
Length of Day
11h 55m
Last Quarter, 45% of the Moon is Illuminated
Sep 27
Last Quarter
Oct 4
New
Oct 11
First Quarter
Oct 18
Full
Oct 26
Last Quarter

Hourly Weather History & Observations

Time (EDT) Temp. Windchill Dew Point Humidity Pressure Visibility Wind Dir Wind Speed Gust Speed Precip Events Conditions
12:56 AM 45.0 °F - 42.1 °F 90% 30.14 in 10.0 mi Calm Calm - N/A   Clear
1:56 AM 44.1 °F - 42.1 °F 93% 30.14 in 10.0 mi Calm Calm - N/A   Clear
2:56 AM 44.1 °F - 42.1 °F 93% 30.14 in 9.0 mi Calm Calm - N/A   Clear
3:56 AM 44.1 °F - 42.1 °F 93% 30.14 in 10.0 mi Calm Calm - N/A   Clear
4:56 AM 45.0 °F - 43.0 °F 93% 30.15 in 9.0 mi Calm Calm - N/A   Clear
5:56 AM 44.1 °F - 43.0 °F 96% 30.17 in 6.0 mi Calm Calm - N/A   Clear
6:56 AM 45.0 °F 43.5 °F 44.1 °F 97% 30.18 in 4.0 mi NE 3.5 mph - N/A   Clear
7:56 AM 46.9 °F - 45.0 °F 93% 30.21 in 5.0 mi NE 3.5 mph - N/A   Clear
8:56 AM 55.9 °F - 52.0 °F 87% 30.22 in 10.0 mi East 3.5 mph - N/A   Clear
9:56 AM 60.1 °F - 53.1 °F 78% 30.22 in 10.0 mi East 6.9 mph - N/A   Clear
10:56 AM 64.9 °F - 51.1 °F 61% 30.23 in 10.0 mi East 8.1 mph - N/A   Clear
11:56 AM 68.0 °F - 51.1 °F 55% 30.23 in 10.0 mi East 8.1 mph 18.4 mph N/A   Clear
12:56 PM 70.0 °F - 48.9 °F 47% 30.22 in 10.0 mi East 6.9 mph - N/A   Clear
1:56 PM 72.0 °F - 46.9 °F 41% 30.21 in 10.0 mi East 8.1 mph - N/A   Clear
2:56 PM 72.0 °F - 48.0 °F 43% 30.19 in 10.0 mi ENE 9.2 mph - N/A   Clear
3:56 PM 72.0 °F - 48.9 °F 44% 30.18 in 10.0 mi ENE 8.1 mph - N/A   Clear
4:56 PM 72.0 °F - 48.0 °F 43% 30.17 in 10.0 mi ENE 9.2 mph - N/A   Clear
5:56 PM 70.0 °F - 48.9 °F 47% 30.18 in 10.0 mi East 6.9 mph - N/A   Clear
6:56 PM 64.9 °F - 51.1 °F 61% 30.19 in 10.0 mi ENE 5.8 mph - N/A   Clear
7:56 PM 57.0 °F - 50.0 °F 77% 30.19 in 10.0 mi NE 4.6 mph - N/A   Clear
8:56 PM 55.0 °F - 48.9 °F 80% 30.19 in 10.0 mi ENE 4.6 mph - N/A   Clear
9:56 PM 54.0 °F - 48.9 °F 83% 30.20 in 10.0 mi ENE 3.5 mph - N/A   Clear
10:56 PM 52.0 °F - 48.0 °F 86% 30.21 in 10.0 mi East 4.6 mph - N/A   Clear
11:56 PM 50.0 °F - 46.9 °F 89% 30.20 in 10.0 mi East 3.5 mph - N/A   Clear